Location: Waco, TX
(31.5480°N, 97.1670°W)
Time: 12:38:07
(UTC-05:00)

ISS - Pass Details

Date: 22 May 2018
Orbit: 402 x 407 km, 51.6° (Epoch: 27 May)

Event Time Altitude Azimuth Distance (km) Brightness Sun altitude
Rises 20:27:53 0° 210° (SSW) 2,305 0.1 -1.8°
Reaches altitude 10° 20:30:00 10° 203° (SSW) 1,449 -1.0 -2.2°
Maximum altitude 20:33:06 42° 131° (SE) 586 -3.4 -2.8°
Drops below altitude 10° 20:36:12 10° 59° (ENE) 1,454 -1.3 -3.4°
Sets 20:38:20 0° 52° (NE) 2,315 -0.2 -3.8°
